STARLINK-33763, 63452

Orbit data source: Space-Track

STARLINK-33763, 63452 is a payload satellite owned by SpaceX/Seattle (US) in LEO that was launched on Fri, 04 Apr 2025 UTC via an FALCON 9 launch vehicle from the Air Force Western Test Range (AFWTR). Payload-class satellites include a variety of spacecraft equipped with specific instruments for various scientific and technological missions. These include communications satellites like Starlink; space stations such as the ISS; scientific satellites like the Hubble; Earth observation satellites from companies like Planet Labs, Umbra, and HawkEye 360; GPS; miniature CubeSats for education and research; and military/defense satellites.

Loading next visibility...
Identifier
63452, 2025-069V
Orbit
LEO
Country
Flag of USUS
Related business
Manufacturer
SpaceX/Seattle
Mission
Operational Commercial Communications
Bus & Motor
STARLINK V2MO, Unknown motor
Mass
575 kg wet, ~530 kg dry
Launch date (UTC)
2025-04-04 (1 year ago)
Launch vehicle
FALCON 9
Launch site
Air Force Western Test Range (AFWTR)
Object type
Payload
Rocket body
Debris
Shape & HBR
Box + 2 Pan, 17.7 m
Radar Cross Section
36.964 m², Large (>1 m²)

Expand to show TLE details & history
Last TLE update: 10 hours ago

TLE from 10 hours ago
0 STARLINK-33763
1 63452U 25069V   26145.36268208  .00048779  00000-0  11229-2 0  9997
2 63452  53.1584 143.4864 0001017  88.8821 271.2302 15.42169564 65182
Epoch: 2026-05-25T08:42Z
TLE epoch observation values (Epoch: 2026-05-25T08:42:15.731Z)
Latitude
0.00001°
Longitude
129.96931°
Altitude
440.597 km
Speed
7.649 km/s
True Right ascension
09h 33m 56s
True Declination
0° 00' 00"
Sunlit
Object was in daylight at epoch
Visualization orbit readout
Latitude
Unknown
Longitude
Unknown
Altitude
Unknown
Speed
Unknown
Apparent Right ascension
Unknown
Apparent Declination
Unknown
Sunlit
N/A
Visualization observer readout
Local Sidereal Time
03:50:36
Azimuth
Unknown
Elevation
Unknown
Doppler factor
Unknown
Orbital elements
Apogee altitude
440.659 km
Perigee altitude
439.272 km
Semi-major axis
6,818.102 km
Eccentricity
0.0001
Inclination
53.1584°
RAAN
143.4864°
Arg. of periapsis
88.8821°
True anomaly
271.21855°
Mean anomaly
271.2302°
Eccentric anomaly
271.22437°
Mean motion
3.85521 °/min
Orbital period
93.38 mins
BSTAR
0.0011229
Loading maneuver chart data...
Computing Atmospheric mass density...
Loading historical data...
Loading historical data...
Loading historical data...
Loading historical data...
Loading historical data...
Loading historical data...
Loading historical data...

Documentation

Showing up to 5 results
|